Location: Tel Aviv
(32.0670°N, 34.7670°E)
Time: 02:42:15
(UTC+03:00)

Vanguard 2 - Pass Details

Date: 23 January 2022
Orbit: 552 x 2935 km, 32.9° (Epoch: 26 May)

Event Time Altitude Azimuth Distance (km) Brightness Sun altitude
Rises 16:26:11 0° 156° (SSE) 3,561 11.0 6.8°
Enters shadow 16:41:05 -6° 82° (E) 5,882 11.4 4.0°
Exits shadow 17:19:20 -54° 41° (NE) 13,683 13.6 -3.4°
Reaches altitude 10° 18:30:50 10° 206° (SSW) 2,949 11.0 -17.9°
Maximum altitude 18:37:35 37° 141° (SE) 2,186 9.6 -19.3°
Drops below altitude 10° 18:48:12 10° 81° (E) 4,659 - -21.5°
Sets 18:53:04 0° 74° (ENE) 6,037 - -22.6°
